User: anonymous   Login
Location: Cella
(44.7333°N, 10.5667°E)
Time: 16:34:01
(UTC+00:00)
Language:

Cosmos 1777 Rocket - Orbit

View from above orbital plane
View from above orbital plane
View from above satellite
View from above satellite

Ground track
Ground track

The orbit data is extracted from the following two-line orbital elements,

1 16953U 86070B   21127.89267787 -.00000009  00000-0  59105-5 0  9997
2 16953  74.0114 178.4711 0011219  56.9245 303.2984 14.37423764815955
Epoch (UTC): 07 May 2021 21:25:27
Eccentricity: 0.0011219
inclination: 74.0114°
perigee height: 759 km
apogee height: 775 km
right ascension of ascending node: 178.4711°
argument of perigee: 56.9245°
revolutions per day: 14.37423764
mean anomaly at epoch: 303.2984°
orbit number at epoch: 81595

The dashed part of the orbit path shows where the satellite is in the earth's shadow,  

DLR